Regional Weather Roundup
Issued by NWS

Home | Current Version | Previous Version | Text Only | Print | Product List | Glossary Off
Versions: 1 2 3 4 5 6 7 8 9 10 11 12 13 14 15 16 17 18 19 20 21 22 23 24 25 26 27 28 29 30 31 32 33 34 35 36 37 38 39 40 41 42 43 44 45 46 47 48 49 50

000
ASUS45 KSLC 110410
RWRUT

UTAH REGIONAL WEATHER ROUNDUP
NATIONAL WEATHER SERVICE SALT LAKE CITY UT
900 PM MST WED FEB 10 2016

UTZ001>011-023>025-110500-

NORTHERN UTAH

CITY           SKY/WX    TMP DP  RH WIND       PRES   REMARKS
BRIGHAM CITY   CLOUDY    28  26  94 SW6       30.47S VSB 1   WCI  21
HILL AFB       FOG       28  27  94 S5        30.43F VSB 1   WCI  23
LOGAN          FOG       23  22  96 NW5       30.45F VSB 1/4 WCI  17
OGDEN          CLOUDY    28  27  96 W3        30.44F FOG
PROVO AIRPORT  CLEAR     19  18  93 CALM      30.45R FOG
SALT LAKE CITY CLOUDY    29  28  96 CALM      30.46S FOG
VERNAL         CLOUDY    19  14  81 CALM      30.39F HAZE
WENDOVER       CLOUDY    30  27  86 CALM      30.46S
HEBER CITY     CLEAR     14  10  85 CALM      30.41R
WEST JORDAN    CLOUDY    28  28 100 CALM      30.46R

$$

UTZ012>022-026-027-110500-

SOUTHERN/CENTRAL UTAH

CITY           SKY/WX    TMP DP  RH WIND       PRES   REMARKS
BLANDING       CLEAR     31  25  78 N3        30.42F
BRYCE CANYON   PTCLDY    21  11  65 W6        30.43S WCI  13
CEDAR CITY     PTCLDY    27  23  85 CALM      30.37S
DELTA            N/A     13  12  94 CALM      30.44F VSB 1/2
HANKSVILLE     PTCLDY    30  30 100 E3        30.40S
MILFORD        MOCLDY    11   9  92 N5        30.41S FOG     WCI   3
MOAB/CYNLANDS  CLEAR     30  26  85 CALM      30.39R
PRICE          PTCLDY    26  19  74 N6        30.36F WCI  19
ST GEORGE      CLEAR     52  27  37 CALM      30.30R

$$

REGIONAL REPORTS     COLORADO/ARIZONA

CITY           SKY/WX    TMP DP  RH WIND       PRES   REMARKS
CRAIG, CO      CLOUDY     4   2  91 CALM      30.37F
GRAND JUNCTION CLOUDY    30  25  81 SW3       30.39R
RIFLE          CLOUDY    23  16  74 SE7       30.40R WCI  15
MONTROSE       CLOUDY    26  21  81 SE9       30.42R WCI  17
CORTEZ         CLOUDY    28  22  78 E9        30.37R WCI  19
PAGE, AZ       CLEAR     42  28  57 SE6       30.34R
GRAND CANYON   PTCLDY    29  18  63 E3        30.39S
KINGMAN        CLEAR     46  32  58 SE6       30.26F
FLAGSTAFF      CLEAR     31  21  66 CALM      30.39F

$$

REGIONAL REPORTS    NEVADA/IDAHO/WYOMING

CITY           SKY/WX    TMP DP  RH WIND       PRES   REMARKS
LAS VEGAS, NV  CLEAR     60  27  28 SW5       30.19S
ELY            PTCLDY    24  17  74 S13       30.41S WCI  12
ELKO           CLOUDY    19  14  81 CALM      30.44R
POCATELLO, ID  CLOUDY    24  22  91 NW7       30.42R WCI  16
BURLEY         CLEAR     28  25  88 NW3       30.38R
EVANSTON, WY   CLOUDY    30  14  51 W14       30.39F WCI  19
ROCK SPRINGS   CLOUDY    36  19  50 W20       30.32F WCI  25

$$



USA.gov is the U.S. government's official web portal to all federal, state and local government web resources and services.